Location: Burland Observatory
(39.4088°N, 105.4217°W)
Time: 05:15:13
(UTC-07:00)

SR - Pass Details

Date: 12 December 2019
Orbit: 574 x 882 km, 66.7° (Epoch: 25 January)

Event Time Altitude Azimuth Distance (km) Brightness Sun altitude
Rises 09:37:36 0° 231° (SW) 3,241 ? 19.7°
Reaches altitude 10° 09:40:06 10° 240° (WSW) 2,363 ? 20.0°
Maximum altitude 09:45:10 38° 307° (NW) 1,265 ? 20.5°
Drops below altitude 10° 09:50:34 10° 15° (NNE) 2,513 ? 21.0°
Sets 09:53:19 0° 23° (NNE) 3,473 ? 21.3°
